Location: ????????
(56.0167°N, 38.0333°E)
Time: 17:49:17
(UTC+00:00)

Cosmos 2333 Rocket - Pass Details

Date: 19 May 2025
Orbit: 840 x 862 km, 70.8° (Epoch: 21 June)

Event Time Altitude Azimuth Distance (km) Brightness Sun altitude
Rises 22:05:23 0° 321° (NW) 3,442 6.0 -13.5°
Reaches altitude 10° 22:08:12 10° 309° (NW) 2,497 5.0 -13.4°
Maximum altitude 22:12:50 26° 255° (WSW) 1,616 3.4 -13.3°
Enters shadow 22:15:54 17° 213° (SSW) 2,036 3.6 -13.2°
